Home   Weather   Ceuta   Past weeks

Flag for Spain Past Weather in Ceuta, Ceuta, Spain — Yesterday and Last 2 Weeks

Now
52 °F

Clear.


Feels Like: 47 °F
Forecast: 51 / 61 °F
Wind: 15 mph from West

Location: Gibraltar Airport

Current Time: Jan 25, 2017 at 2:43:33 am

Latest Report: Jan 25, 2017 at 1:50 am


Visibility: N/A

Pressure: 30.24 "Hg

Humidity: 82%

Dew Point: 46 °F

Location of CeutaLocation

Past Weather in Ceuta — Graph

°F

Ceuta Temperature Yesterday

Maximum temperature yesterday: 59 °F (at 2:50 pm)
Minimum temperature yesterday: 48 °F (at 6:50 am)
Average temperature yesterday: 54 °F

High & Low Weather Summary for the Past Weeks

 TemperatureHumidityPressure
High66 °F (Jan 11, 3:50 pm)94% (Jan 18, 9:50 am)30.36 "Hg (Jan 18, 9:50 am)
Low39 °F (Jan 19, 3:50 am)29% (Jan 16, 12:50 pm)29.89 "Hg (Jan 20, 1:50 am)
Average54 °F66%30.14 "Hg
* Reported Jan 10 12:50 am — Jan 25 12:50 am, Ceuta, Weather by CustomWeather, © 2017

Note: Actual official high and low records may vary slightly from our data, if they occured in-between our weather recording intervals... More about our weather records

Advertising

Ceuta Weather History for the Previous 24 Hours

Scroll right to see more
 ConditionsComfort  
Time TempWeatherWind HumidityBarometerVisibility
12:50 am
Wed, Jan 25
52 °FClear.16 mph82%30.27 "HgN/A
11:50 pm
Tue, Jan 24
52 °FClear.15 mph77%30.27 "HgN/A
10:50 pm54 °FClear.17 mph72%30.27 "HgN/A
9:50 pm54 °FClear.13 mph67%30.27 "HgN/A
8:50 pm54 °FClear.16 mph67%30.27 "HgN/A
7:50 pm55 °FPassing clouds.13 mph63%30.27 "HgN/A
6:50 pm57 °FPassing clouds.16 mph59%30.24 "HgN/A
5:50 pm59 °FPassing clouds.16 mph51%30.24 "HgN/A
4:50 pm59 °FPassing clouds.16 mph51%30.24 "HgN/A
3:50 pm59 °FPassing clouds.16 mph48%30.24 "HgN/A
2:50 pm59 °FPassing clouds.17 mph51%30.24 "HgN/A
1:50 pm57 °FPassing clouds.17 mph48%30.24 "HgN/A
12:50 pm57 °FPassing clouds.16 mph55%30.27 "HgN/A
11:50 am57 °FPassing clouds.14 mph48%30.27 "HgN/A
10:50 am54 °FPassing clouds.12 mph77%30.27 "HgN/A
9:50 am52 °FPassing clouds.6 mph88%30.27 "HgN/A
8:50 am52 °FPassing clouds.6 mph88%30.24 "HgN/A
7:50 am50 °FPassing clouds.5 mph82%30.21 "HgN/A
6:50 am48 °FPassing clouds.6 mph82%30.21 "HgN/A
5:50 am50 °FClear.8 mph82%30.21 "HgN/A
4:50 am50 °FClear.8 mph76%30.21 "HgN/A
3:50 am50 °FClear.6 mph76%30.21 "HgN/A
2:50 am52 °FClear.10 mph72%30.18 "HgN/A
Weather by CustomWeather, © 2017

See weather overviewHow to use our weather pages